[Date Prev][Date Next][Thread Prev][Thread Next] - [Date Index][Thread Index][Author Index]
2 Line ISS Keps 4-26
- Subject: [sarex] 2 Line ISS Keps 4-26
- From: "Dave Larsen PhD" <doc@xxxxxxxxxxx>
- Date: Mon, 26 Apr 2004 06:13:06 -0700
ISS
1 25544U 98067A 04117.49312277 .00027430 00000-0 23792-3 0 6537
2 25544 51.6276 229.2347 0011194 70.7564 8.5688 15.68831067310209
----
Via the sarex mailing list at AMSAT.ORG courtesy of AMSAT-NA.
To unsubscribe, send "unsubscribe sarex" to Majordomo@amsat.org
AMSAT Home